Time,TemperatureF,DewpointF,PressureIn,WindDirection,WindDirectionDegrees,WindSpeedMPH,WindSpeedGustMPH,Humidity,HourlyPrecipIn,Conditions,Clouds,dailyrainin,SoftwareType,DateUTC
2013-05-24 00:02:00,69.0,65.0,30.08,ENE,75,0.0,-999.0,88,-99.99,,,-99.99,,2013-05-24 10:02:00,
2013-05-24 00:12:00,69.0,65.0,30.08,ENE,75,0.0,-999.0,88,-99.99,,,-99.99,,2013-05-24 10:12:00,
2013-05-24 00:22:00,70.0,67.0,30.08,East,90,1.0,-999.0,89,-99.99,,,-99.99,,2013-05-24 10:22:00,
2013-05-24 00:32:00,70.0,66.0,30.07,NE,53,2.0,-999.0,88,-99.99,,,-99.99,,2013-05-24 10:32:00,
2013-05-24 00:42:00,70.0,66.0,30.07,NE,53,2.0,-999.0,88,-99.99,,,-99.99,,2013-05-24 10:42:00,
2013-05-24 00:52:00,71.0,66.0,30.07,NE,49,1.0,-999.0,84,-99.99,,,-99.99,,2013-05-24 10:52:00,
2013-05-24 01:02:00,71.0,65.0,30.05,NE,38,1.0,-999.0,81,-99.99,,,-99.99,,2013-05-24 11:02:00,
2013-05-24 01:11:00,71.0,65.0,30.05,NE,38,1.0,-999.0,81,-99.99,,,-99.99,,2013-05-24 11:11:00,
2013-05-24 01:22:00,69.0,65.0,30.05,ENE,69,2.0,-999.0,86,-99.99,,,-99.99,,2013-05-24 11:22:00,
2013-05-24 01:32:00,69.0,64.0,30.05,ENE,65,1.0,-999.0,83,-99.99,,,-99.99,,2013-05-24 11:32:00,
2013-05-24 01:41:00,69.0,64.0,30.05,ENE,65,1.0,-999.0,83,-99.99,,,-99.99,,2013-05-24 11:41:00,
2013-05-24 01:52:00,71.0,64.0,30.04,ENE,72,3.0,-999.0,78,-99.99,,,-99.99,,2013-05-24 11:52:00,
2013-05-24 02:01:00,72.0,64.0,30.04,ENE,75,5.0,-999.0,77,-99.99,,,-99.99,,2013-05-24 12:01:00,
2013-05-24 02:11:00,72.0,64.0,30.04,ENE,75,5.0,-999.0,77,-99.99,,,-99.99,,2013-05-24 12:11:00,
2013-05-24 02:21:00,71.0,63.0,30.04,ENE,59,4.0,-999.0,76,-99.99,,,-99.99,,2013-05-24 12:21:00,
2013-05-24 02:32:00,71.0,63.0,30.04,NE,50,3.0,-999.0,76,-99.99,,,-99.99,,2013-05-24 12:32:00,
2013-05-24 02:42:00,71.0,63.0,30.04,NE,50,3.0,-999.0,76,-99.99,,,-99.99,,2013-05-24 12:42:00,
2013-05-24 02:52:00,71.0,62.0,30.03,NNE,24,1.0,-999.0,73,-99.99,,,-99.99,,2013-05-24 12:52:00,
2013-05-24 03:02:00,70.0,62.0,30.03,NE,43,2.0,-999.0,76,-99.99,,,-99.99,,2013-05-24 13:02:00,
2013-05-24 03:11:00,70.0,62.0,30.03,NE,43,2.0,-999.0,76,-99.99,,,-99.99,,2013-05-24 13:11:00,
2013-05-24 03:21:00,70.0,62.0,30.04,NE,56,1.0,-999.0,77,-99.99,,,-99.99,,2013-05-24 13:21:00,
2013-05-24 03:31:00,69.0,63.0,30.04,ESE,117,1.0,-999.0,82,-99.99,,,-99.99,,2013-05-24 13:31:00,
2013-05-24 03:41:00,69.0,63.0,30.04,ESE,117,1.0,-999.0,82,-99.99,,,-99.99,,2013-05-24 13:41:00,
2013-05-24 03:52:00,69.0,64.0,30.04,ENE,77,1.0,-999.0,85,-99.99,,,-99.99,,2013-05-24 13:52:00,
2013-05-24 04:01:00,69.0,64.0,30.03,ENE,78,1.0,-999.0,85,-99.99,,,-99.99,,2013-05-24 14:01:00,
2013-05-24 04:11:00,69.0,64.0,30.03,ENE,78,1.0,-999.0,85,-99.99,,,-99.99,,2013-05-24 14:11:00,
2013-05-24 04:21:00,68.0,64.0,30.03,East,83,1.0,-999.0,86,-99.99,,,-99.99,,2013-05-24 14:21:00,
2013-05-24 04:31:00,68.0,64.0,30.03,East,82,0.0,-999.0,86,-99.99,,,-99.99,,2013-05-24 14:31:00,
2013-05-24 04:41:00,68.0,64.0,30.03,East,82,0.0,-999.0,86,-99.99,,,-99.99,,2013-05-24 14:41:00,
2013-05-24 04:51:00,67.0,63.0,30.03,East,79,1.0,-999.0,87,-99.99,,,-99.99,,2013-05-24 14:51:00,
2013-05-24 05:02:00,67.0,63.0,30.04,ENE,78,1.0,-999.0,86,-99.99,,,-99.99,,2013-05-24 15:02:00,
2013-05-24 05:11:00,67.0,63.0,30.04,ENE,78,1.0,-999.0,86,-99.99,,,-99.99,,2013-05-24 15:11:00,
2013-05-24 05:21:00,67.0,62.0,30.04,NE,49,1.0,-999.0,84,-99.99,,,-99.99,,2013-05-24 15:21:00,
2013-05-24 05:32:00,67.0,62.0,30.04,NE,51,1.0,-999.0,85,-99.99,,,-99.99,,2013-05-24 15:32:00,
2013-05-24 05:43:00,67.0,62.0,30.04,NE,51,1.0,-999.0,85,-99.99,,,-99.99,,2013-05-24 15:43:00,
2013-05-24 05:52:00,66.0,62.0,30.05,NE,51,1.0,-999.0,86,-99.99,,,-99.99,,2013-05-24 15:52:00,
2013-05-24 06:03:00,66.0,62.0,30.05,NE,51,1.0,-999.0,87,-99.99,,,-99.99,,2013-05-24 16:03:00,
2013-05-24 06:12:00,66.0,62.0,30.05,NE,51,1.0,-999.0,87,-99.99,,,-99.99,,2013-05-24 16:12:00,
2013-05-24 06:22:00,66.0,62.0,30.06,NE,51,1.0,-999.0,87,-99.99,,,-99.99,,2013-05-24 16:22:00,
2013-05-24 06:32:00,66.0,62.0,30.06,NE,46,1.0,-999.0,86,-99.99,,,-99.99,,2013-05-24 16:32:00,
2013-05-24 06:42:00,66.0,62.0,30.06,NE,46,1.0,-999.0,86,-99.99,,,-99.99,,2013-05-24 16:42:00,
2013-05-24 06:52:00,67.0,63.0,30.06,ENE,78,0.0,-999.0,87,-99.99,,,-99.99,,2013-05-24 16:52:00,
2013-05-24 07:01:00,67.0,63.0,30.06,East,80,1.0,-999.0,87,-99.99,,,-99.99,,2013-05-24 17:01:00,
2013-05-24 07:11:00,67.0,63.0,30.06,East,80,1.0,-999.0,87,-99.99,,,-99.99,,2013-05-24 17:11:00,
2013-05-24 07:22:00,69.0,65.0,30.06,East,86,1.0,-999.0,86,-99.99,,,-99.99,,2013-05-24 17:22:00,
2013-05-24 07:32:00,71.0,67.0,30.06,ESE,106,0.0,-999.0,87,-99.99,,,-99.99,,2013-05-24 17:32:00,
2013-05-24 07:41:00,71.0,67.0,30.06,ESE,106,0.0,-999.0,87,-99.99,,,-99.99,,2013-05-24 17:41:00,
2013-05-24 07:52:00,72.0,68.0,30.07,East,96,0.0,-999.0,87,-99.99,,,-99.99,,2013-05-24 17:52:00,
2013-05-24 08:01:00,73.0,68.0,30.07,ESE,117,0.0,-999.0,84,-99.99,,,-99.99,,2013-05-24 18:01:00,
2013-05-24 08:11:00,73.0,68.0,30.07,ESE,117,0.0,-999.0,84,-99.99,,,-99.99,,2013-05-24 18:11:00,
2013-05-24 08:21:00,74.0,68.0,30.07,East,80,1.0,-999.0,81,-99.99,,,-99.99,,2013-05-24 18:21:00,
2013-05-24 08:32:00,75.0,67.0,30.07,West,267,0.0,-999.0,76,-99.99,,,-99.99,,2013-05-24 18:32:00,
2013-05-24 08:41:00,75.0,67.0,30.07,West,267,0.0,-999.0,76,-99.99,,,-99.99,,2013-05-24 18:41:00,
2013-05-24 08:51:00,75.0,68.0,30.07,South,186,2.0,-999.0,80,-99.99,,,-99.99,,2013-05-24 18:51:00,
2013-05-24 09:01:00,75.0,68.0,30.08,SSW,209,2.0,-999.0,79,-99.99,,,-99.99,,2013-05-24 19:01:00,
2013-05-24 09:11:00,75.0,68.0,30.08,SSW,209,2.0,-999.0,79,-99.99,,,-99.99,,2013-05-24 19:11:00,
2013-05-24 09:21:00,76.0,68.0,30.08,SW,218,1.0,-999.0,77,-99.99,,,-99.99,,2013-05-24 19:21:00,
2013-05-24 09:31:00,77.0,68.0,30.08,WSW,254,1.0,-999.0,75,-99.99,,,-99.99,,2013-05-24 19:31:00,
2013-05-24 09:41:00,77.0,68.0,30.08,WSW,254,1.0,-999.0,75,-99.99,,,-99.99,,2013-05-24 19:41:00,
2013-05-24 09:52:00,77.0,70.0,30.08,WSW,242,2.0,-999.0,79,-99.99,,,-99.99,,2013-05-24 19:52:00,
2013-05-24 10:02:00,76.0,70.0,30.08,SW,232,2.0,-999.0,82,-99.99,,,-99.99,,2013-05-24 20:02:00,
2013-05-24 10:11:00,76.0,70.0,30.08,SW,232,2.0,-999.0,82,-99.99,,,-99.99,,2013-05-24 20:11:00,
2013-05-24 10:21:00,75.0,69.0,30.08,SSW,211,3.0,-999.0,81,-99.99,,,-99.99,,2013-05-24 20:21:00,
2013-05-24 10:31:00,76.0,69.0,30.08,South,182,1.0,-999.0,80,-99.99,,,-99.99,,2013-05-24 20:31:00,
2013-05-24 10:41:00,76.0,69.0,30.08,South,182,1.0,-999.0,80,-99.99,,,-99.99,,2013-05-24 20:41:00,
2013-05-24 10:51:00,76.0,69.0,30.08,SSW,196,2.0,-999.0,80,-99.99,,,-99.99,,2013-05-24 20:51:00,
2013-05-24 11:01:00,75.0,67.0,30.08,South,190,3.0,-999.0,77,-99.99,,,-99.99,,2013-05-24 21:01:00,
2013-05-24 11:11:00,75.0,67.0,30.08,South,190,3.0,-999.0,77,-99.99,,,-99.99,,2013-05-24 21:11:00,
2013-05-24 11:21:00,75.0,68.0,30.08,SW,214,3.0,-999.0,79,-99.99,,,-99.99,,2013-05-24 21:21:00,
2013-05-24 11:32:00,75.0,68.0,30.08,SSW,207,3.0,-999.0,80,-99.99,,,-99.99,,2013-05-24 21:32:00,
2013-05-24 11:42:00,75.0,68.0,30.08,SSW,207,3.0,-999.0,80,-99.99,,,-99.99,,2013-05-24 21:42:00,
2013-05-24 11:53:00,76.0,68.0,30.08,SSW,199,2.0,-999.0,77,-99.99,,,-99.99,,2013-05-24 21:53:00,
2013-05-24 12:02:00,76.0,68.0,30.08,SW,222,2.0,-999.0,77,-99.99,,,-99.99,,2013-05-24 22:02:00,
2013-05-24 12:12:00,76.0,68.0,30.08,SW,222,2.0,-999.0,77,-99.99,,,-99.99,,2013-05-24 22:12:00,
2013-05-24 12:22:00,75.0,71.0,30.07,WSW,240,2.0,-999.0,86,-99.99,,,-99.99,,2013-05-24 22:22:00,
2013-05-24 12:32:00,74.0,70.0,30.07,West,267,2.0,-999.0,88,-99.99,,,-99.99,,2013-05-24 22:32:00,
2013-05-24 12:42:00,74.0,70.0,30.07,West,267,2.0,-999.0,88,-99.99,,,-99.99,,2013-05-24 22:42:00,
2013-05-24 12:52:00,74.0,71.0,30.06,WNW,302,2.0,-999.0,89,-99.99,,,-99.99,,2013-05-24 22:52:00,
2013-05-24 13:02:00,73.0,69.0,30.06,SSW,209,2.0,-999.0,88,-99.99,,,-99.99,,2013-05-24 23:02:00,
2013-05-24 13:11:00,73.0,69.0,30.06,SSW,209,2.0,-999.0,88,-99.99,,,-99.99,,2013-05-24 23:11:00,
2013-05-24 13:22:00,73.0,70.0,30.06,West,275,3.0,-999.0,90,-99.99,,,-99.99,,2013-05-24 23:22:00,
2013-05-24 13:32:00,73.0,70.0,30.05,WNW,303,2.0,-999.0,90,-99.99,,,-99.99,,2013-05-24 23:32:00,
2013-05-24 13:42:00,73.0,70.0,30.05,WNW,303,2.0,-999.0,90,-99.99,,,-99.99,,2013-05-24 23:42:00,
2013-05-24 13:52:00,72.0,70.0,30.05,NW,321,0.0,-999.0,92,-99.99,,,-99.99,,2013-05-24 23:52:00,
2013-05-24 14:01:00,73.0,71.0,30.04,NW,321,0.0,-999.0,92,-99.99,,,-99.99,,2013-05-25 00:01:00,
2013-05-24 14:11:00,73.0,71.0,30.04,NW,321,0.0,-999.0,92,-99.99,,,-99.99,,2013-05-25 00:11:00,
2013-05-24 14:21:00,73.0,70.0,30.04,WSW,252,0.0,-999.0,89,-99.99,,,-99.99,,2013-05-25 00:21:00,
2013-05-24 14:32:00,73.0,70.0,30.03,WSW,254,1.0,-999.0,90,-99.99,,,-99.99,,2013-05-25 00:32:00,
2013-05-24 14:41:00,73.0,70.0,30.03,WSW,254,1.0,-999.0,90,-99.99,,,-99.99,,2013-05-25 00:41:00,
2013-05-24 14:52:00,73.0,70.0,30.03,WSW,256,2.0,-999.0,90,-99.99,,,-99.99,,2013-05-25 00:52:00,
2013-05-24 15:01:00,73.0,70.0,30.03,WSW,252,1.0,-999.0,89,-99.99,,,-99.99,,2013-05-25 01:01:00,
2013-05-24 15:11:00,73.0,70.0,30.03,WSW,252,1.0,-999.0,89,-99.99,,,-99.99,,2013-05-25 01:11:00,
2013-05-24 15:21:00,73.0,70.0,30.02,SSW,192,1.0,-999.0,89,-99.99,,,-99.99,,2013-05-25 01:21:00,
2013-05-24 15:32:00,73.0,70.0,30.02,SSW,211,1.0,-999.0,91,-99.99,,,-99.99,,2013-05-25 01:32:00,
2013-05-24 15:41:00,73.0,70.0,30.02,SSW,211,1.0,-999.0,91,-99.99,,,-99.99,,2013-05-25 01:41:00,
2013-05-24 15:52:00,74.0,71.0,30.02,WSW,250,2.0,-999.0,90,-99.99,,,-99.99,,2013-05-25 01:52:00,
2013-05-24 16:01:00,74.0,70.0,30.02,SSW,205,1.0,-999.0,88,-99.99,,,-99.99,,2013-05-25 02:01:00,
2013-05-24 16:11:00,74.0,70.0,30.02,SSW,205,1.0,-999.0,88,-99.99,,,-99.99,,2013-05-25 02:11:00,
2013-05-24 16:21:00,73.0,70.0,30.03,SE,135,1.0,-999.0,89,-99.99,,,-99.99,,2013-05-25 02:21:00,
2013-05-24 16:31:00,74.0,70.0,30.02,South,182,2.0,-999.0,87,-99.99,,,-99.99,,2013-05-25 02:31:00,
2013-05-24 16:41:00,74.0,70.0,30.02,South,182,2.0,-999.0,87,-99.99,,,-99.99,,2013-05-25 02:41:00,
2013-05-24 16:52:00,75.0,71.0,30.02,SSW,205,3.0,-999.0,86,-99.99,,,-99.99,,2013-05-25 02:52:00,
2013-05-24 17:01:00,75.0,71.0,30.02,SSE,167,2.0,-999.0,86,-99.99,,,-99.99,,2013-05-25 03:01:00,
2013-05-24 17:11:00,75.0,71.0,30.02,SSE,167,2.0,-999.0,86,-99.99,,,-99.99,,2013-05-25 03:11:00,
2013-05-24 17:21:00,74.0,70.0,30.03,SW,224,3.0,-999.0,87,-99.99,,,-99.99,,2013-05-25 03:21:00,
2013-05-24 17:32:00,75.0,70.0,30.03,South,188,2.0,-999.0,85,-99.99,,,-99.99,,2013-05-25 03:32:00,
2013-05-24 17:43:00,75.0,70.0,30.03,South,188,2.0,-999.0,85,-99.99,,,-99.99,,2013-05-25 03:43:00,
2013-05-24 17:53:00,75.0,71.0,30.03,South,185,2.0,-999.0,86,-99.99,,,-99.99,,2013-05-25 03:53:00,
2013-05-24 18:02:00,74.0,70.0,30.03,South,188,2.0,-999.0,88,-99.99,,,-99.99,,2013-05-25 04:02:00,
2013-05-24 18:12:00,74.0,70.0,30.03,South,188,2.0,-999.0,88,-99.99,,,-99.99,,2013-05-25 04:12:00,
2013-05-24 18:23:00,74.0,70.0,30.04,SSE,159,1.0,-999.0,88,-99.99,,,-99.99,,2013-05-25 04:23:00,
2013-05-24 18:32:00,74.0,70.0,30.04,SSW,192,1.0,-999.0,88,-99.99,,,-99.99,,2013-05-25 04:32:00,
2013-05-24 18:43:00,74.0,70.0,30.04,SSW,192,1.0,-999.0,88,-99.99,,,-99.99,,2013-05-25 04:43:00,
2013-05-24 18:52:00,73.0,70.0,30.04,SSW,192,0.0,-999.0,89,-99.99,,,-99.99,,2013-05-25 04:52:00,
2013-05-24 19:02:00,73.0,70.0,30.03,SSW,192,0.0,-999.0,89,-99.99,,,-99.99,,2013-05-25 05:02:00,
2013-05-24 19:11:00,73.0,70.0,30.03,SSW,192,0.0,-999.0,89,-99.99,,,-99.99,,2013-05-25 05:11:00,
2013-05-24 19:22:00,72.0,69.0,30.03,SSW,192,0.0,-999.0,90,-99.99,,,-99.99,,2013-05-25 05:22:00,
2013-05-24 19:32:00,72.0,69.0,30.03,SSW,192,0.0,-999.0,91,-99.99,,,-99.99,,2013-05-25 05:32:00,
2013-05-24 19:42:00,72.0,69.0,30.03,SSW,192,0.0,-999.0,91,-99.99,,,-99.99,,2013-05-25 05:42:00,
2013-05-24 19:52:00,72.0,70.0,30.03,South,173,0.0,-999.0,92,-99.99,,,-99.99,,2013-05-25 05:52:00,
2013-05-24 20:01:00,71.0,69.0,30.04,South,171,0.0,-999.0,92,-99.99,,,-99.99,,2013-05-25 06:01:00,
2013-05-24 20:12:00,71.0,69.0,30.04,SE,126,0.0,-999.0,93,-99.99,,,-99.99,,2013-05-25 06:12:00,
2013-05-24 20:21:00,71.0,69.0,30.04,SE,126,0.0,-999.0,93,-99.99,,,-99.99,,2013-05-25 06:21:00,
2013-05-24 20:32:00,70.0,68.0,30.04,SE,126,0.0,-999.0,94,-99.99,,,-99.99,,2013-05-25 06:32:00,
2013-05-24 20:42:00,70.0,68.0,30.04,SE,126,0.0,-999.0,94,-99.99,,,-99.99,,2013-05-25 06:42:00,
2013-05-24 20:52:00,70.0,68.0,30.05,SE,126,0.0,-999.0,94,-99.99,,,-99.99,,2013-05-25 06:52:00,
2013-05-24 21:01:00,70.0,68.0,30.05,SE,126,0.0,-999.0,95,-99.99,,,-99.99,,2013-05-25 07:01:00,
2013-05-24 21:11:00,70.0,68.0,30.05,SE,126,0.0,-999.0,95,-99.99,,,-99.99,,2013-05-25 07:11:00,
2013-05-24 21:21:00,70.0,68.0,30.07,ESE,121,0.0,-999.0,95,-99.99,,,-99.99,,2013-05-25 07:21:00,
2013-05-24 21:31:00,70.0,68.0,30.07,ESE,121,0.0,-999.0,95,-99.99,,,-99.99,,2013-05-25 07:31:00,
2013-05-24 21:41:00,70.0,68.0,30.07,ESE,121,0.0,-999.0,95,-99.99,,,-99.99,,2013-05-25 07:41:00,
2013-05-24 21:52:00,70.0,68.0,30.07,ESE,120,0.0,-999.0,94,-99.99,,,-99.99,,2013-05-25 07:52:00,
2013-05-24 22:02:00,70.0,68.0,30.06,SE,125,0.0,-999.0,93,-99.99,,,-99.99,,2013-05-25 08:02:00,
2013-05-24 22:11:00,70.0,68.0,30.06,SE,125,0.0,-999.0,93,-99.99,,,-99.99,,2013-05-25 08:11:00,
2013-05-24 22:22:00,69.0,67.0,30.06,East,93,0.0,-999.0,92,-99.99,,,-99.99,,2013-05-25 08:22:00,
2013-05-24 22:32:00,69.0,67.0,30.06,East,89,1.0,-999.0,93,-99.99,,,-99.99,,2013-05-25 08:32:00,
2013-05-24 22:41:00,69.0,67.0,30.06,East,89,1.0,-999.0,93,-99.99,,,-99.99,,2013-05-25 08:41:00,
2013-05-24 22:51:00,69.0,67.0,30.06,East,101,0.0,-999.0,92,-99.99,,,-99.99,,2013-05-25 08:51:00,
2013-05-24 23:01:00,69.0,67.0,30.06,ESE,111,1.0,-999.0,92,-99.99,,,-99.99,,2013-05-25 09:01:00,
2013-05-24 23:11:00,69.0,67.0,30.06,ESE,111,1.0,-999.0,92,-99.99,,,-99.99,,2013-05-25 09:11:00,
2013-05-24 23:21:00,69.0,67.0,30.06,East,83,1.0,-999.0,92,-99.99,,,-99.99,,2013-05-25 09:21:00,
2013-05-24 23:33:00,69.0,66.0,30.06,ENE,77,0.0,-999.0,91,-99.99,,,-99.99,,2013-05-25 09:33:00,
2013-05-24 23:42:00,69.0,66.0,30.06,ENE,77,0.0,-999.0,91,-99.99,,,-99.99,,2013-05-25 09:42:00,
2013-05-24 23:52:00,68.0,65.0,30.05,ENE,78,0.0,-999.0,91,-99.99,,,-99.99,,2013-05-25 09:52:00,